Regional Weather Roundup
Issued by NWS

Home | Current Version | Previous Version | Text Only | Print | Product List | Glossary On
Versions: 1 2 3 4 5 6 7 8 9 10 11 12 13 14 15 16 17 18 19 20 21 22 23 24 25 26 27 28 29 30 31 32 33 34 35 36 37 38 39 40 41 42 43 44 45 46 47 48 49 50
000
ASUS44 KOUN 310910
RWROK

WEATHER ROUNDUP FOR OKLAHOMA
NATIONAL WEATHER SERVICE NORMAN OK
400 AM CDT FRI JUL 31 2015

NOTE: "FAIR" INDICATES FEW OR NO CLOUDS BELOW 12,000 FEET WITH NO
      SIGNIFICANT WEATHER AND/OR OBSTRUCTIONS TO VISIBILITY.

OKZ001>007-009>012-014-015-017-311000-
NORTHWEST OKLAHOMA AND THE PANHANDLE

CITY           SKY/WX    TMP DP  RH WIND       PRES   REMARKS
GAGE           MOCLDY    72  68  87 CALM      30.18F
GUYMON         CLOUDY    72  69  90 S8        30.22F
ENID/WOODRING  CLEAR     72  70  94 N5        30.13S
$$

OKZ016-021>023-033>039-044-045-311000-
SOUTHWEST OKLAHOMA

CITY           SKY/WX    TMP DP  RH WIND       PRES   REMARKS
LAWTON/REGL    PTCLDY    78  71  79 NE8       30.11F
FREDERICK      CLEAR     78  71  79 NE10      30.09S
CLINTON        CLOUDY    75  71  87 N5        30.18S
HOBART         PTCLDY    75  71  87 E7        30.14F
ALTUS AFB      CLEAR     76  70  82 NE6       30.12F
$$

OKZ018>020-024>031-311000-
CENTRAL OKLAHOMA

CITY           SKY/WX    TMP DP  RH WIND       PRES   REMARKS
OKLAHOMA CITY  MOCLDY    76  73  91 SE5       30.13S
OKC/WILEY POST PTCLDY    79  74  84 E6        30.13S
OKC/TINKER AFB MOCLDY    76  73  92 NE1       30.12S
STILLWATER     MOCLDY    74  71  91 N6        30.12F
GUTHRIE        MOCLDY    75  72  90 NE6       30.13S
$$

OKZ008-013-054>072-311000-
NORTHEAST OKLAHOMA

CITY           SKY/WX    TMP DP  RH WIND       PRES   REMARKS
TULSA          MOCLDY    75  72  90 N3        30.10S
TULSA/JONES    CLEAR     77  73  87 S3        30.11S
PONCA CITY     MOCLDY    72  69  90 NE3       30.13F
MUSKOGEE       CLEAR     74  71  91 S5        30.12S
$$

OKZ032-040>043-046>053-073>077-311000-
SOUTH CENTRAL/SOUTHEAST OKLAHOMA

CITY           SKY/WX    TMP DP  RH WIND       PRES   REMARKS
ARDMORE/DWNTWN PTCLDY    75  70  83 CALM      30.10S
MCALESTER      MOCLDY    76  71  85 E3        30.11S
$$




USA.gov is the U.S. government's official web portal to all federal, state and local government web resources and services.